This is the latest recevied weather packets stored in our database for station/object 7M1JBF-11. If no packets are shown the sender has not sent any weather packets the latest 10 day(s).
| Time | Temp. | Humidity | Pressure | Rain* | Wind** | Luminosity | Snow |
|---|---|---|---|---|---|---|---|
| 1777609470 | 15.56° C | 100% | 997.8 hPa | 36.83 mm | - | - | - |
| 1777608869 | 15.56° C | 100% | 998.2 hPa | 36.83 mm | - | - | - |
| 1777608267 | 15.56° C | 100% | 998.7 hPa | 36.32 mm | - | - | - |
| 1777607666 | 15° C | 100% | 998.7 hPa | 36.32 mm | - | - | - |
| 1777607065 | 15° C | 100% | 998.1 hPa | 36.32 mm | - | - | - |
| 1777605862 | 14.44° C | 100% | 999.6 hPa | 35.81 mm | - | - | - |
| 1777605263 | 14.44° C | 100% | 999.9 hPa | 35.81 mm | - | - | - |
| 1777604659 | 14.44° C | 100% | 1000.3 hPa | 35.81 mm | - | - | - |
| 1777604058 | 14.44° C | 100% | 1000.8 hPa | 35.05 mm | - | - | - |
| 1777603456 | 14.44° C | 100% | 1001.2 hPa | 34.54 mm | - | - | - |
| 1777602855 | 14.44° C | 100% | 1001.6 hPa | 34.54 mm | - | - | - |
| 1777602254 | 14.44° C | 100% | 1001.6 hPa | 34.54 mm | - | - | - |
| 1777601652 | 13.89° C | 100% | 1001.7 hPa | 34.29 mm | - | - | - |
| 1777601051 | 13.89° C | 100% | 1002.2 hPa | 34.04 mm | - | - | - |
| 1777600450 | 13.89° C | 100% | 1002.9 hPa | 34.04 mm | - | - | - |
| 1777599848 | 13.33° C | 100% | 1003 hPa | 33.53 mm | - | - | - |
| 1777599247 | 13.33° C | 100% | 1003.5 hPa | 33.02 mm | - | - | - |
| 1777598647 | 13.33° C | 100% | 1003.8 hPa | 32.77 mm | - | - | - |
| 1777598048 | 13.33° C | 100% | 1004.2 hPa | 32.77 mm | - | - | - |
| 1777597443 | 13.33° C | 100% | 1004.3 hPa | 32.51 mm | - | - | - |
| 1777596841 | 13.33° C | 100% | 1004.5 hPa | 32.26 mm | - | - | - |
| 1777596240 | 12.78° C | 100% | 1004.4 hPa | 30.99 mm | - | - | - |
| 1777595639 | 12.78° C | 100% | 1004.6 hPa | 28.45 mm | - | - | - |
| 1777595037 | 12.78° C | 100% | 1004.7 hPa | 26.42 mm | - | - | - |
| 1777594436 | 12.78° C | 100% | 1005.2 hPa | 24.64 mm | - | - | - |
* Rain since midnight (hover to see other rain measurements)
** Current wind speed in m/s (hover to see current wind gust speed)